Date String (YYYY-MM-DD hh:mm:ss) UTC,Instrument flags,Ambient pressure (hPa),Sample flow (lpm),Bypass flow (lpm),Sample temperature (°C),Ambient temperature (°C),ASC tube jacket temperature (°C),LED temperature (°C),Box temperature (°C),Sample RH (%),Span deviation,Mass concentration (μg/m³),Mass concentration (μg/m³),Mass concentration (μg/m³)
DateTimeUTC,F1_M11,P_M11,Q1_M11,Q2_M11,T1_M11,T2_M11,T3_M11,T4_M11,T5_M11,U1_M11,ZSPAN_M11,X2_M11,X0_M11,X1_M11
2023-04-21 23:00:00,,0828.2,5.00,0.00,23.8,22.3,00.0,32.1,25.4,12.4,0000.0,0002.06,0008.44,0001.13
2023-04-21 23:01:00,,0828.2,5.00,0.00,23.8,22.3,00.0,32.1,25.4,12.4,0000.0,0002.04,0008.36,0001.13
2023-04-21 23:02:00,,0828.2,5.00,0.00,23.8,22.4,00.0,32.1,25.4,12.4,0000.0,0002.01,0007.97,0001.13
2023-04-21 23:03:00,,0828.2,5.00,0.00,23.8,22.4,00.0,32.1,25.3,12.3,0000.0,0001.93,0007.17,0001.12
2023-04-21 23:04:00,,0828.2,5.00,0.00,23.8,22.4,00.0,32.1,25.4,12.4,0000.0,0001.92,0006.60,0001.10
2023-04-21 23:05:00,,0828.3,5.00,0.00,23.8,22.3,00.0,32.1,25.4,12.5,0000.0,0001.94,0006.22,0001.09
2023-04-21 23:06:00,,0828.2,4.99,0.00,23.8,22.3,00.0,32.1,25.5,12.6,0000.0,0001.98,0006.49,0001.09
2023-04-21 23:07:00,,0828.2,4.99,0.00,23.8,22.3,00.0,32.1,25.5,12.8,0000.0,0001.95,0006.44,0001.08
2023-04-21 23:08:00,,0828.3,5.01,0.00,23.8,22.3,00.0,32.1,25.4,12.9,0000.0,0001.93,0005.29,0001.07
2023-04-21 23:09:00,,0828.3,5.01,0.00,23.8,22.3,00.0,32.1,25.4,13.0,0000.0,0001.93,0004.89,0001.06
2023-04-21 23:10:00,,0828.3,4.99,0.00,23.8,22.3,00.0,32.1,25.3,12.8,0000.0,0001.94,0004.09,0001.06
2023-04-21 23:11:00,,0828.3,5.01,0.00,23.8,22.3,00.0,32.1,25.4,12.7,0000.0,0001.93,0004.09,0001.05
2023-04-21 23:12:00,,0828.3,4.99,0.00,23.8,22.3,00.0,32.1,25.4,12.9,0000.0,0001.88,0003.95,0001.04
2023-04-21 23:13:00,,0828.3,4.99,0.00,23.8,22.3,00.0,32.1,25.4,12.7,0000.0,0001.90,0004.09,0001.04
2023-04-21 23:14:00,,0828.4,5.01,0.00,23.8,22.3,00.0,32.1,25.3,12.8,0000.0,0001.87,0004.12,0001.03
2023-04-21 23:15:00,,0828.4,5.00,0.00,23.8,22.3,00.0,32.1,25.3,13.0,0000.0,0001.85,0004.00,0001.02
2023-04-21 23:16:00,,0828.4,5.00,0.00,23.8,22.2,00.0,32.1,25.3,13.0,0000.0,0001.78,0003.63,0001.01
2023-04-21 23:17:00,,0828.4,5.01,0.00,23.8,22.2,00.0,32.1,25.3,13.2,0000.0,0001.75,0003.41,0001.01
2023-04-21 23:18:00,,0828.4,5.00,0.00,23.8,22.2,00.0,32.1,25.2,13.1,0000.0,0001.80,0003.85,0001.02
2023-04-21 23:19:00,,0828.4,5.00,0.00,23.8,22.2,00.0,32.1,25.2,13.2,0000.0,0001.92,0005.39,0001.03
2023-04-21 23:20:00,,0828.4,4.99,0.00,23.7,22.0,00.0,32.1,24.9,13.2,0000.0,0001.96,0006.52,0001.04
2023-04-21 23:21:00,,0828.4,5.00,0.00,23.5,21.4,00.0,32.1,24.5,13.2,0000.0,0001.99,0007.64,0001.04
2023-04-21 23:22:00,,0828.4,5.00,0.00,23.4,20.9,00.0,32.0,24.3,13.0,0000.0,0002.03,0007.89,0001.06
2023-04-21 23:23:00,,0828.4,5.01,0.00,23.3,20.8,00.0,32.0,24.3,13.3,0000.0,0002.11,0008.03,0001.06
2023-04-21 23:24:00,,0828.4,5.01,0.00,23.2,20.8,00.0,31.9,24.4,13.5,0000.0,0002.17,0009.06,0001.06
2023-04-21 23:25:00,,0828.4,5.01,0.00,23.2,21.0,00.0,31.9,24.5,13.3,0000.0,0002.34,0010.95,0001.07
2023-04-21 23:26:00,,0828.4,4.99,0.00,23.3,21.1,00.0,31.8,24.6,12.8,0000.0,0002.36,0011.04,0001.06
2023-04-21 23:27:00,,0828.4,5.00,0.00,23.3,21.2,00.0,31.8,24.6,12.8,0000.0,0002.39,0011.11,0001.06
2023-04-21 23:28:00,,0828.3,5.00,0.00,23.3,21.4,00.0,31.8,24.7,12.7,0000.0,0002.40,0011.13,0001.06
2023-04-21 23:29:00,,0828.4,5.00,0.00,23.3,21.5,00.0,31.8,24.7,12.8,0000.0,0002.32,0010.92,0001.06
2023-04-21 23:30:00,,0828.4,5.01,0.00,23.3,21.6,00.0,31.8,24.8,12.7,0000.0,0002.20,0010.08,0001.05
2023-04-21 23:31:00,,0828.4,5.00,0.00,23.3,21.7,00.0,31.8,24.8,12.7,0000.0,0002.16,0009.59,0001.03
2023-04-21 23:32:00,,0828.4,5.00,0.00,23.3,21.8,00.0,31.8,24.8,12.6,0000.0,0002.13,0008.87,0001.03
2023-04-21 23:33:00,,0828.4,5.00,0.00,23.3,21.9,00.0,31.8,24.9,12.4,0000.0,0002.10,0008.48,0001.02
2023-04-21 23:34:00,,0828.4,5.00,0.00,23.4,22.0,00.0,31.8,24.9,12.6,0000.0,0002.08,0008.44,0001.02
2023-04-21 23:35:00,,0828.4,5.00,0.00,23.4,22.0,00.0,31.8,25.0,12.4,0000.0,0002.04,0007.22,0001.02
2023-04-21 23:36:00,,0828.4,4.99,0.00,23.4,22.1,00.0,31.8,25.0,12.3,0000.0,0001.90,0004.00,0001.02
2023-04-21 23:37:00,,0828.5,5.00,0.00,23.4,22.1,00.0,31.8,25.0,12.3,0000.0,0001.85,0003.65,0001.04
2023-04-21 23:38:00,,0828.5,5.00,0.00,23.4,22.2,00.0,31.8,25.0,12.7,0000.0,0001.84,0003.58,0001.04
2023-04-21 23:39:00,,0828.5,5.01,0.00,23.4,22.2,00.0,31.8,25.0,13.2,0000.0,0001.85,0003.62,0001.04
2023-04-21 23:40:00,,0828.6,5.00,0.00,23.5,22.3,00.0,31.8,25.0,13.3,0000.0,0001.91,0004.02,0001.04
2023-04-21 23:41:00,,0828.6,5.01,0.00,23.5,22.3,00.0,31.8,25.0,13.4,0000.0,0001.91,0004.02,0001.04
2023-04-21 23:42:00,,0828.6,5.00,0.00,23.5,22.3,00.0,31.8,25.0,13.4,0000.0,0001.93,0004.13,0001.06
2023-04-21 23:43:00,,0828.6,4.99,0.00,23.5,22.4,00.0,31.8,25.0,13.4,0000.0,0001.91,0003.95,0001.06
2023-04-21 23:44:00,,0828.6,5.00,0.00,23.5,22.4,00.0,31.9,25.1,13.0,0000.0,0001.88,0003.93,0001.05
2023-04-21 23:45:00,,0828.6,5.01,0.00,23.5,22.4,00.0,31.9,25.1,12.7,0000.0,0001.82,0003.88,0001.05
2023-04-21 23:46:00,,0828.6,5.00,0.00,23.5,22.4,00.0,31.9,25.1,12.6,0000.0,0001.81,0003.85,0001.06
2023-04-21 23:47:00,,0828.6,5.00,0.00,23.5,22.4,00.0,31.9,25.2,12.4,0000.0,0001.85,0004.03,0001.06
2023-04-21 23:48:00,,0828.6,5.00,0.00,23.5,22.4,00.0,31.9,25.2,12.4,0000.0,0001.86,0004.06,0001.06
2023-04-21 23:49:00,,0828.7,5.00,0.00,23.6,22.5,00.0,31.9,25.2,12.3,0000.0,0001.87,0005.21,0001.04
2023-04-21 23:50:00,,0828.7,5.00,0.00,23.6,22.5,00.0,31.9,25.2,12.3,0000.0,0001.91,0005.73,0001.04
2023-04-21 23:51:00,,0828.7,5.00,0.00,23.6,22.5,00.0,31.9,25.3,12.2,0000.0,0001.95,0005.73,0001.05
2023-04-21 23:52:00,,0828.7,5.00,0.00,23.7,22.6,00.0,31.9,25.3,12.1,0000.0,0001.98,0005.67,0001.05
2023-04-21 23:53:00,,0828.8,5.00,0.00,23.7,22.6,00.0,32.0,25.4,12.5,0000.0,0002.02,0005.63,0001.05
2023-04-21 23:54:00,,0828.8,5.00,0.00,23.7,22.6,00.0,32.0,25.4,12.8,0000.0,0002.12,0005.98,0001.06
2023-04-21 23:55:00,,0828.8,5.00,0.00,23.7,22.5,00.0,32.0,25.4,13.1,0000.0,0002.24,0006.38,0001.06
2023-04-21 23:56:00,,0828.8,4.99,0.00,23.7,22.5,00.0,32.0,25.4,13.1,0000.0,0002.30,0007.23,0001.05
2023-04-21 23:57:00,,0828.8,4.99,0.00,23.7,22.5,00.0,32.0,25.4,13.2,0000.0,0002.57,0010.55,0001.05
2023-04-21 23:58:00,,0828.8,5.00,0.00,23.7,22.4,00.0,32.0,25.4,13.4,0000.0,0003.27,0017.39,0001.09
2023-04-21 23:59:00,,0828.8,5.00,0.00,23.7,22.4,00.0,32.0,25.4,13.5,0000.0,0003.60,0021.00,0001.12
